The Terminator
24 Feb 2019

     
Click on your name for more detailed race data

Page 1 of 8 (380 items)
PosBib NoNameGun TimeChip TimeCategoryCat PosGenderGen PosClubPace
27158Rebecca HANNAH1:32:34.11:32:30.9FSen1Female1 7.8 m/hr
37428Jessica WHITE1:35:18.31:35:13.1FVet351Female2MARLBOROUGH RUNNING CLUB 7.6 m/hr
41318Victoria RATCLIFFE1:36:07.51:36:04.5FVet352Female3SOMER AC 7.5 m/hr
51267Niki MORGAN1:37:08.31:37:06.1FVet451Female4CHEPSTOW HARRIERS 7.4 m/hr
61383Ruth THOM1:39:34.41:39:31.9FVet353Female5CITY OF SALISBURY AC & RC 7.2 m/hr
6724Anne-Marie BAYLISS1:40:48.41:40:45.2FVet354Female6 7.1 m/hr
73334Jacqueline ROCKLIFFE1:41:41.01:41:36.2FVet452Female7AVON VALLEY RUNNERS 7.1 m/hr
92379Geri TAYLOR1:45:51.01:45:45.8FVet355Female8SWINDON STRIDERS 6.8 m/hr
99191Charlotte INGRAM1:46:40.21:46:37.6FVet356Female9CITY OF SALISBURY AC & RC 6.7 m/hr
112384Georgia THOMAS1:49:11.21:48:48.8FSen2Female10 6.6 m/hr
116197Lisa JEFFREY1:49:28.01:49:24.0FVet453Female11CHEPSTOW HARRIERS 6.6 m/hr
117133Serena FRANKLIN1:49:45.61:49:41.5FSen3Female12SHREWTON RUNNING CLUB 6.6 m/hr
129139Alice GATES1:51:49.41:51:36.0FVet357Female13 6.4 m/hr
136319Vivienne RAVENHILL1:52:39.41:52:31.5FVet454Female14 6.4 m/hr
137332Kathryn ROBSON1:52:44.51:52:35.2FVet455Female15POOLE AC 6.4 m/hr
138149Alison GRAHAM1:53:14.11:53:03.9FVet551Female16CORSHAM RUNNING CLUB 6.4 m/hr
14341Catherine BODY1:54:00.11:53:49.3FVet358Female17DEVIZES RUNNING CLUB 6.3 m/hr
145416Gabby WALKER1:54:27.21:54:21.4FVet359Female18 6.3 m/hr
149299Lauren PESTANA1:54:40.41:54:33.2FSen4Female19 6.3 m/hr
151281Miranda NUGENT1:55:02.01:54:51.6FVet456Female20 6.3 m/hr
15270Melanie CASSIDY1:55:02.81:54:39.3FVet3510Female21WITNEY ROAD RUNNERS 6.3 m/hr
15467Amy CAMERON1:55:14.01:54:59.9FVet3511Female22SWINDON STRIDERS 6.2 m/hr
155358Katie SMITH1:55:24.71:55:13.1FSen5Female23WHITE HORSE HARRIERS 6.2 m/hr
159117Emilie FIDLER1:56:57.41:56:39.1FVet3512Female24CHESTERTON TRAIL RUNNERS 6.2 m/hr
16382Lucy COLLINS1:57:20.91:57:16.1FSen6Female25GREAT CHEVERELL CIRCUITS 6.1 m/hr
165380Rebecca TAYLOR1:57:24.41:57:13.7FVet3513Female26SWINDON STRIDERS 6.1 m/hr
166200Angela JOHNSON1:57:30.61:57:18.6FVet552Female27DEVIZES RUNNING CLUB 6.1 m/hr
167124Luisa FOGARTY1:57:32.61:57:21.4FVet3514Female28 6.1 m/hr
170120Amy FLAXMAN1:58:17.11:57:57.2FSen7Female29RUN WALLINGFORD 6.1 m/hr
172169Clare HAZELL1:58:27.91:58:16.0FVet457Female30WHITE HORSE HARRIERS 6.1 m/hr
173239Julia MADDOCKS1:58:29.11:58:18.2FVet458Female31CHIPPENHAM HARRIERS 6.1 m/hr
176344Nina SARPONG1:59:09.21:58:50.0FVet459Female32RUN WALLINGFORD 6.0 m/hr
181186Emma HOLTON1:59:45.61:59:25.8FVet3515Female33VERWOOD RUNNERS 6.0 m/hr
183119Tesher FITZPATRICK2:00:28.42:00:21.8FVet4510Female34MARLBOROUGH RUNNING CLUB 6.0 m/hr
18530Rachel BENDELL2:01:00.22:00:55.7FVet4511Female35SWINDON STRIDERS 6.0 m/hr
188122Lynne FLYNN2:01:27.72:01:17.5FVet3516Female36MUDDY RUNNERS 5.9 m/hr
189294Lucy PAYNE2:01:27.72:01:12.4FSen8Female37 5.9 m/hr
193280Katie NORTH2:02:13.52:01:55.1FSen9Female38 5.9 m/hr
20050Lynn BRAND2:03:08.62:03:01.4FVet553Female39FROME RUNNING CLUB 5.8 m/hr
201207Rona JONES2:03:12.92:03:03.6FVet4512Female40POOLE AC 5.8 m/hr
202161Annemarie HARRIS2:03:15.62:03:04.1FVet4513Female41PONTYPOOL RUNNERS 5.8 m/hr
203136Lucy FRY2:03:23.62:03:04.1FVet3517Female42TRAIL RUNNING ASSOCIATION 5.8 m/hr
204354Louise SLOAN2:03:26.22:03:18.1FVet4514Female43CITY OF SALISBURY AC & RC 5.8 m/hr
208237Frances MACHIN2:03:50.12:03:33.6FVet3518Female44ROYAL WOOTTON BASSETT HOUNDS RC 5.8 m/hr
210164Tamzyn HARRIS2:04:04.82:03:50.9FVet3519Female45SWINDON STRIDERS 5.8 m/hr
215305Magdalena PINNEY2:04:20.12:04:08.4FSen10Female46WHITE HORSE HARRIERS 5.8 m/hr
217378Charlotte TAYLOR2:04:30.12:04:17.7FVet4515Female47SHREWTON RUNNING CLUB 5.8 m/hr
218355Becks SMALLMAN2:04:35.42:04:30.7FSen11Female48GREAT CHEVERELL CIRCUITS 5.8 m/hr
219225Claire LANGLEY2:04:38.22:04:31.4FVet3520Female49PEWSEY VALE RC 5.8 m/hr
221393Sarah TILLING2:05:03.22:04:56.4FVet3521Female50SWINDON STRIDERS 5.8 m/hr
Page 1 of 8 (380 items)
   

fb